Time,TemperatureF,DewpointF,PressureIn,WindDirection,WindDirectionDegrees,WindSpeedMPH,WindSpeedGustMPH,Humidity,HourlyPrecipIn,Conditions,Clouds,dailyrainin,SoftwareType,DateUTC
2013-03-19 00:03:00,5.7,-1.7,29.98,WNW,293,6.0,9.0,71,0.00,,CLR,0.00,VWS V14.00,2013-03-19 05:03:00,
2013-03-19 00:08:00,5.6,-1.8,29.99,NW,315,5.0,14.0,71,0.00,,CLR,0.00,VWS V14.00,2013-03-19 05:08:00,
2013-03-19 00:13:00,5.4,-2.2,29.99,WNW,300,3.0,13.0,70,0.00,,CLR,0.00,VWS V14.00,2013-03-19 05:13:00,
2013-03-19 00:18:00,5.1,-2.5,29.98,WNW,290,4.0,13.0,70,0.00,,CLR,0.00,VWS V14.00,2013-03-19 05:18:00,
2013-03-19 00:23:00,5.0,-2.6,29.98,WNW,299,3.0,9.0,70,0.00,,CLR,0.00,VWS V14.00,2013-03-19 05:23:00,
2013-03-19 00:28:00,4.8,-2.8,29.98,WNW,300,3.0,10.0,70,0.00,,CLR,0.00,VWS V14.00,2013-03-19 05:28:00,
2013-03-19 00:33:00,4.7,-2.9,29.99,WNW,303,4.0,12.0,70,0.00,,CLR,0.00,VWS V14.00,2013-03-19 05:33:00,
2013-03-19 00:38:00,4.5,-2.8,29.99,WNW,295,3.0,12.0,71,0.00,,CLR,0.00,VWS V14.00,2013-03-19 05:38:00,
2013-03-19 00:43:00,4.4,-3.2,29.99,WNW,293,5.0,11.0,70,0.00,,CLR,0.00,VWS V14.00,2013-03-19 05:43:00,
2013-03-19 00:48:00,4.3,-3.3,29.99,WNW,294,2.0,11.0,70,0.00,,CLR,0.00,VWS V14.00,2013-03-19 05:48:00,
2013-03-19 00:53:00,4.2,-3.4,29.99,WNW,300,6.0,9.0,70,0.00,,CLR,0.00,VWS V14.00,2013-03-19 05:53:00,
2013-03-19 00:58:00,4.1,-3.2,29.99,WNW,287,6.0,10.0,71,0.00,,CLR,0.00,VWS V14.00,2013-03-19 05:58:00,
2013-03-19 01:03:00,4.1,-3.2,29.99,WNW,292,7.0,10.0,71,0.00,,CLR,0.00,VWS V14.00,2013-03-19 06:03:00,
2013-03-19 01:08:00,4.1,-3.5,29.99,WNW,289,6.0,12.0,70,0.00,,CLR,0.00,VWS V14.00,2013-03-19 06:08:00,
2013-03-19 01:13:00,4.1,-3.2,29.99,WNW,292,2.0,11.0,71,0.00,,CLR,0.00,VWS V14.00,2013-03-19 06:13:00,
2013-03-19 01:18:00,4.0,-3.6,29.99,WNW,296,7.0,11.0,70,0.00,,CLR,0.00,VWS V14.00,2013-03-19 06:18:00,
2013-03-19 01:23:00,3.9,-3.7,30.00,WNW,288,8.0,12.0,70,0.00,,CLR,0.00,VWS V14.00,2013-03-19 06:23:00,
2013-03-19 01:28:00,3.8,-3.8,29.99,WNW,285,7.0,12.0,70,0.00,,CLR,0.00,VWS V14.00,2013-03-19 06:28:00,
2013-03-19 01:33:00,3.7,-3.9,29.99,WNW,285,6.0,12.0,70,0.00,,CLR,0.00,VWS V14.00,2013-03-19 06:33:00,
2013-03-19 01:38:00,3.6,-4.0,29.99,WNW,294,6.0,12.0,70,0.00,,CLR,0.00,VWS V14.00,2013-03-19 06:38:00,
2013-03-19 01:43:00,3.6,-4.0,29.99,WNW,292,8.0,10.0,70,0.00,,CLR,0.00,VWS V14.00,2013-03-19 06:43:00,
2013-03-19 01:48:00,3.5,-4.1,29.99,WNW,284,10.0,13.0,70,0.00,,CLR,0.00,VWS V14.00,2013-03-19 06:48:00,
2013-03-19 01:53:00,3.4,-4.2,30.00,WNW,287,9.0,12.0,70,0.00,,CLR,0.00,VWS V14.00,2013-03-19 06:53:00,
2013-03-19 01:58:00,3.3,-4.3,30.00,West,280,5.0,12.0,70,0.00,,CLR,0.00,VWS V14.00,2013-03-19 06:58:00,
2013-03-19 02:03:00,3.3,-4.6,30.00,West,278,6.0,12.0,69,0.00,,CLR,0.00,VWS V14.00,2013-03-19 07:03:00,
2013-03-19 02:08:00,3.0,-4.8,30.01,WNW,286,9.0,12.0,69,0.00,,CLR,0.00,VWS V14.00,2013-03-19 07:08:00,
2013-03-19 02:13:00,2.9,-4.9,30.01,West,270,10.0,13.0,69,0.00,,CLR,0.00,VWS V14.00,2013-03-19 07:13:00,
2013-03-19 02:18:00,2.9,-4.9,30.01,WNW,286,7.0,13.0,69,0.00,,CLR,0.00,VWS V14.00,2013-03-19 07:18:00,
2013-03-19 02:23:00,2.8,-5.1,30.02,West,280,11.0,12.0,69,0.00,,CLR,0.00,VWS V14.00,2013-03-19 07:23:00,
2013-03-19 02:28:00,2.8,-5.1,30.02,WNW,286,4.0,14.0,69,0.00,,CLR,0.00,VWS V14.00,2013-03-19 07:28:00,
2013-03-19 02:33:00,2.7,-5.1,30.02,West,276,7.0,13.0,69,0.00,,CLR,0.00,VWS V14.00,2013-03-19 07:33:00,
2013-03-19 02:38:00,2.6,-5.2,30.03,West,278,8.0,15.0,69,0.00,,CLR,0.00,VWS V14.00,2013-03-19 07:38:00,
2013-03-19 02:43:00,2.5,-5.6,30.03,WNW,283,7.0,14.0,68,0.00,,CLR,0.00,VWS V14.00,2013-03-19 07:43:00,
2013-03-19 02:48:00,2.5,-5.6,30.03,WNW,283,8.0,15.0,68,0.00,,CLR,0.00,VWS V14.00,2013-03-19 07:48:00,
2013-03-19 02:53:00,2.4,-5.7,30.03,West,271,5.0,12.0,68,0.00,,CLR,0.00,VWS V14.00,2013-03-19 07:53:00,
2013-03-19 02:58:00,2.3,-5.8,30.03,WNW,295,10.0,15.0,68,0.00,,CLR,0.00,VWS V14.00,2013-03-19 07:58:00,
2013-03-19 03:03:00,2.1,-6.0,30.02,WNW,285,11.0,11.0,68,0.00,,CLR,0.00,VWS V14.00,2013-03-19 08:03:00,
2013-03-19 03:08:00,2.0,-6.1,30.03,WNW,292,6.0,12.0,68,0.00,,CLR,0.00,VWS V14.00,2013-03-19 08:08:00,
2013-03-19 03:13:00,1.9,-6.2,30.03,WNW,289,7.0,11.0,68,0.00,,CLR,0.00,VWS V14.00,2013-03-19 08:13:00,
2013-03-19 03:18:00,1.8,-6.3,30.03,WNW,297,8.0,11.0,68,0.00,,CLR,0.00,VWS V14.00,2013-03-19 08:18:00,
2013-03-19 03:23:00,1.8,-6.3,30.03,NW,305,8.0,11.0,68,0.00,,CLR,0.00,VWS V14.00,2013-03-19 08:23:00,
2013-03-19 03:28:00,1.7,-6.7,30.03,WNW,288,7.0,11.0,67,0.00,,CLR,0.00,VWS V14.00,2013-03-19 08:28:00,
2013-03-19 03:33:00,1.7,-6.4,30.03,WNW,299,1.0,10.0,68,0.00,,CLR,0.00,VWS V14.00,2013-03-19 08:33:00,
2013-03-19 03:38:00,1.6,-6.8,30.03,WNW,293,4.0,11.0,67,0.00,,CLR,0.00,VWS V14.00,2013-03-19 08:38:00,
2013-03-19 03:43:00,1.6,-6.8,30.03,WNW,295,2.0,10.0,67,0.00,,CLR,0.00,VWS V14.00,2013-03-19 08:43:00,
2013-03-19 03:48:00,1.5,-6.9,30.03,WNW,302,0.0,10.0,67,0.00,,CLR,0.00,VWS V14.00,2013-03-19 08:48:00,
2013-03-19 03:53:00,1.4,-7.0,30.04,WNW,295,5.0,8.0,67,0.00,,CLR,0.00,VWS V14.00,2013-03-19 08:53:00,
2013-03-19 03:58:00,1.2,-7.2,30.03,WNW,290,4.0,10.0,67,0.00,,CLR,0.00,VWS V14.00,2013-03-19 08:58:00,
2013-03-19 04:03:00,1.0,-7.4,30.03,WNW,282,5.0,10.0,67,0.00,,CLR,0.00,VWS V14.00,2013-03-19 09:03:00,
2013-03-19 04:08:00,0.9,-7.5,30.03,WNW,287,4.0,10.0,67,0.00,,CLR,0.00,VWS V14.00,2013-03-19 09:08:00,
2013-03-19 04:14:00,0.7,-7.7,30.03,WNW,285,1.0,9.0,67,0.00,,CLR,0.00,VWS V14.00,2013-03-19 09:14:00,
2013-03-19 04:19:00,0.5,-7.9,30.03,WNW,292,4.0,9.0,67,0.00,,CLR,0.00,VWS V14.00,2013-03-19 09:19:00,
2013-03-19 04:24:00,0.4,-8.0,30.04,WNW,292,6.0,12.0,67,0.00,,CLR,0.00,VWS V14.00,2013-03-19 09:24:00,
2013-03-19 04:29:00,0.5,-7.9,30.04,WNW,286,7.0,14.0,67,0.00,,CLR,0.00,VWS V14.00,2013-03-19 09:29:00,
2013-03-19 04:34:00,0.6,-7.8,30.04,West,280,4.0,11.0,67,0.00,,CLR,0.00,VWS V14.00,2013-03-19 09:34:00,
2013-03-19 04:39:00,0.6,-7.8,30.04,WNW,291,4.0,15.0,67,0.00,,CLR,0.00,VWS V14.00,2013-03-19 09:39:00,
2013-03-19 04:44:00,0.6,-8.1,30.04,WNW,282,1.0,12.0,66,0.00,,CLR,0.00,VWS V14.00,2013-03-19 09:44:00,
2013-03-19 04:49:00,0.6,-8.1,30.04,WNW,296,5.0,14.0,66,0.00,,CLR,0.00,VWS V14.00,2013-03-19 09:49:00,
2013-03-19 04:54:00,0.5,-8.2,30.05,WNW,302,5.0,11.0,66,0.00,,CLR,0.00,VWS V14.00,2013-03-19 09:54:00,
2013-03-19 04:59:00,0.5,-8.2,30.04,WNW,298,5.0,11.0,66,0.00,,CLR,0.00,VWS V14.00,2013-03-19 09:59:00,
2013-03-19 05:04:00,0.5,-8.2,30.05,WNW,301,4.0,13.0,66,0.00,,CLR,0.00,VWS V14.00,2013-03-19 10:04:00,
2013-03-19 05:09:00,0.4,-8.3,30.05,NW,304,5.0,13.0,66,0.00,,CLR,0.00,VWS V14.00,2013-03-19 10:09:00,
2013-03-19 05:14:00,0.4,-8.3,30.05,WNW,296,7.0,11.0,66,0.00,,CLR,0.00,VWS V14.00,2013-03-19 10:14:00,
2013-03-19 05:19:00,0.5,-8.2,30.05,WNW,295,2.0,11.0,66,0.00,,CLR,0.00,VWS V14.00,2013-03-19 10:19:00,
2013-03-19 05:24:00,0.5,-8.2,30.05,WNW,288,6.0,11.0,66,0.00,,CLR,0.00,VWS V14.00,2013-03-19 10:24:00,
2013-03-19 05:29:00,0.5,-8.2,30.05,WNW,291,3.0,11.0,66,0.00,,CLR,0.00,VWS V14.00,2013-03-19 10:29:00,
2013-03-19 05:34:00,0.4,-8.3,30.05,WNW,293,4.0,9.0,66,0.00,,CLR,0.00,VWS V14.00,2013-03-19 10:34:00,
2013-03-19 05:39:00,0.3,-8.4,30.05,NW,314,0.0,9.0,66,0.00,,CLR,0.00,VWS V14.00,2013-03-19 10:39:00,
2013-03-19 05:44:00,0.2,-8.4,30.06,NW,305,2.0,10.0,66,0.00,,CLR,0.00,VWS V14.00,2013-03-19 10:44:00,
2013-03-19 05:49:00,0.2,-8.4,30.06,WNW,299,0.0,10.0,66,0.00,,CLR,0.00,VWS V14.00,2013-03-19 10:49:00,
2013-03-19 05:54:00,0.2,-8.4,30.06,NW,307,3.0,10.0,66,0.00,,CLR,0.00,VWS V14.00,2013-03-19 10:54:00,
2013-03-19 05:59:00,0.2,-8.4,30.06,WNW,301,3.0,11.0,66,0.00,,CLR,0.00,VWS V14.00,2013-03-19 10:59:00,
2013-03-19 06:04:00,0.3,-8.4,30.06,WNW,291,6.0,10.0,66,0.00,,CLR,0.00,VWS V14.00,2013-03-19 11:04:00,
2013-03-19 06:09:00,0.1,-8.9,30.06,WNW,290,3.0,10.0,65,0.00,,CLR,0.00,VWS V14.00,2013-03-19 11:09:00,
2013-03-19 06:14:00,-0.1,-9.0,30.07,WNW,286,1.0,9.0,65,0.00,,CLR,0.00,VWS V14.00,2013-03-19 11:14:00,
2013-03-19 06:19:00,-0.2,-9.1,30.07,WNW,290,3.0,9.0,65,0.00,,CLR,0.00,VWS V14.00,2013-03-19 11:19:00,
2013-03-19 06:24:00,-0.4,-9.3,30.07,WNW,288,5.0,7.0,65,0.00,,CLR,0.00,VWS V14.00,2013-03-19 11:24:00,
2013-03-19 06:29:00,-0.6,-9.5,30.07,WNW,283,6.0,8.0,65,0.00,,CLR,0.00,VWS V14.00,2013-03-19 11:29:00,
2013-03-19 06:34:00,-0.7,-9.6,30.08,WNW,286,5.0,7.0,65,0.00,,CLR,0.00,VWS V14.00,2013-03-19 11:34:00,
2013-03-19 06:39:00,-0.9,-9.5,30.08,WNW,286,4.0,7.0,66,0.00,,CLR,0.00,VWS V14.00,2013-03-19 11:39:00,
2013-03-19 06:44:00,-1.0,-9.9,30.08,WNW,286,1.0,5.0,65,0.00,,CLR,0.00,VWS V14.00,2013-03-19 11:44:00,
2013-03-19 06:49:00,-1.2,-9.8,30.08,WNW,286,0.0,5.0,66,0.00,,CLR,0.00,VWS V14.00,2013-03-19 11:49:00,
2013-03-19 06:54:00,-1.3,-10.2,30.09,WNW,284,4.0,9.0,65,0.00,,CLR,0.00,VWS V14.00,2013-03-19 11:54:00,
2013-03-19 06:59:00,-1.4,-10.0,30.09,WNW,290,0.0,9.0,66,0.00,,CLR,0.00,VWS V14.00,2013-03-19 11:59:00,
2013-03-19 07:04:00,-1.5,-10.1,30.09,WNW,291,2.0,6.0,66,0.00,,CLR,0.00,VWS V14.00,2013-03-19 12:04:00,
2013-03-19 07:09:00,-1.6,-10.2,30.09,WNW,294,5.0,9.0,66,0.00,,FEW110,0.00,VWS V14.00,2013-03-19 12:09:00,
2013-03-19 07:14:00,-1.5,-10.1,30.09,WNW,292,5.0,11.0,66,0.00,,FEW110,0.00,VWS V14.00,2013-03-19 12:14:00,
2013-03-19 07:19:00,-1.6,-10.2,30.10,WNW,285,5.0,11.0,66,0.00,,FEW110,0.00,VWS V14.00,2013-03-19 12:19:00,
2013-03-19 07:24:00,-1.7,-10.3,30.10,WNW,287,4.0,10.0,66,0.00,,FEW110,0.00,VWS V14.00,2013-03-19 12:24:00,
2013-03-19 07:29:00,-1.7,-10.3,30.10,West,277,5.0,11.0,66,0.00,,FEW110,0.00,VWS V14.00,2013-03-19 12:29:00,
2013-03-19 07:34:00,-1.7,-10.3,30.10,WNW,283,5.0,11.0,66,0.00,,FEW110,0.00,VWS V14.00,2013-03-19 12:34:00,
2013-03-19 07:39:00,-1.8,-10.4,30.11,WNW,285,5.0,11.0,66,0.00,,FEW110,0.00,VWS V14.00,2013-03-19 12:39:00,
2013-03-19 07:44:00,-1.7,-10.3,30.11,WNW,282,2.0,9.0,66,0.00,,FEW110,0.00,VWS V14.00,2013-03-19 12:44:00,
2013-03-19 07:49:00,-1.7,-10.3,30.11,WNW,288,4.0,9.0,66,0.00,,FEW110,0.00,VWS V14.00,2013-03-19 12:49:00,
2013-03-19 07:54:00,-1.6,-10.2,30.12,WNW,294,5.0,9.0,66,0.00,,FEW110,0.00,VWS V14.00,2013-03-19 12:54:00,
2013-03-19 07:59:00,-1.7,-10.3,30.12,WNW,285,7.0,10.0,66,0.00,,FEW110,0.00,VWS V14.00,2013-03-19 12:59:00,
2013-03-19 08:04:00,-1.7,-10.6,30.12,WNW,285,8.0,8.0,65,0.00,,FEW090,0.00,VWS V14.00,2013-03-19 13:04:00,
2013-03-19 08:09:00,-1.6,-10.2,30.13,West,277,6.0,10.0,66,0.00,,FEW090,0.00,VWS V14.00,2013-03-19 13:09:00,
2013-03-19 08:14:00,-1.6,-10.2,30.13,WNW,291,3.0,10.0,66,0.00,,FEW090,0.00,VWS V14.00,2013-03-19 13:14:00,
2013-03-19 08:19:00,-1.5,-10.4,30.13,West,278,2.0,10.0,65,0.00,,FEW090,0.00,VWS V14.00,2013-03-19 13:19:00,
2013-03-19 08:24:00,-1.3,-9.9,30.13,WNW,289,9.0,9.0,66,0.00,,FEW090,0.00,VWS V14.00,2013-03-19 13:24:00,
2013-03-19 08:30:00,-1.1,-10.0,30.14,WNW,284,7.0,9.0,65,0.00,,FEW090,0.00,VWS V14.00,2013-03-19 13:30:00,
2013-03-19 08:35:00,-0.8,-9.4,30.14,WNW,294,5.0,10.0,66,0.00,,FEW090,0.00,VWS V14.00,2013-03-19 13:35:00,
2013-03-19 08:40:00,-0.4,-9.0,30.14,West,281,6.0,10.0,66,0.00,,FEW090,0.00,VWS V14.00,2013-03-19 13:40:00,
2013-03-19 08:45:00,-0.2,-9.1,30.14,WNW,282,4.0,8.0,65,0.00,,FEW090,0.00,VWS V14.00,2013-03-19 13:45:00,
2013-03-19 08:50:00,-0.1,-9.0,30.14,WNW,283,4.0,6.0,65,0.00,,FEW090,0.00,VWS V14.00,2013-03-19 13:50:00,
2013-03-19 08:55:00,0.2,-8.8,30.14,WNW,296,4.0,10.0,65,0.00,,FEW090,0.00,VWS V14.00,2013-03-19 13:55:00,
2013-03-19 09:00:00,0.3,-8.7,30.14,WNW,287,5.0,10.0,65,0.00,,FEW090,0.00,VWS V14.00,2013-03-19 14:00:00,
2013-03-19 09:05:00,0.5,-8.8,30.14,NW,311,2.0,8.0,64,0.00,,FEW090,0.00,VWS V14.00,2013-03-19 14:05:00,
2013-03-19 09:10:00,0.8,-8.5,30.15,NW,306,2.0,3.0,64,0.00,,OVC090,0.00,VWS V14.00,2013-03-19 14:10:00,
2013-03-19 09:15:00,1.1,-8.2,30.15,WNW,290,2.0,8.0,64,0.00,,OVC090,0.00,VWS V14.00,2013-03-19 14:15:00,
2013-03-19 09:20:00,1.3,-8.0,30.15,WNW,291,3.0,4.0,64,0.00,,OVC090,0.00,VWS V14.00,2013-03-19 14:20:00,
2013-03-19 09:25:00,1.6,-7.7,30.15,WNW,297,2.0,8.0,64,0.00,,OVC090,0.00,VWS V14.00,2013-03-19 14:25:00,
2013-03-19 09:30:00,2.3,-7.1,30.16,NW,306,0.0,0.0,64,0.00,,OVC090,0.00,VWS V14.00,2013-03-19 14:30:00,
2013-03-19 09:35:00,2.8,-6.6,30.16,NW,310,3.0,7.0,64,0.00,,OVC090,0.00,VWS V14.00,2013-03-19 14:35:00,
2013-03-19 09:40:00,3.4,-6.0,30.16,NW,308,0.0,0.0,64,0.00,,OVC090,0.00,VWS V14.00,2013-03-19 14:40:00,
2013-03-19 09:45:00,3.9,-5.6,30.16,NW,306,2.0,7.0,64,0.00,,OVC090,0.00,VWS V14.00,2013-03-19 14:45:00,
2013-03-19 09:50:00,4.3,-5.5,30.16,WNW,300,5.0,5.0,63,0.00,,OVC090,0.00,VWS V14.00,2013-03-19 14:50:00,
2013-03-19 09:55:00,4.7,-5.4,30.16,WNW,297,0.0,8.0,62,0.00,,OVC090,0.00,VWS V14.00,2013-03-19 14:55:00,
2013-03-19 10:00:00,5.2,-5.0,30.16,NW,310,6.0,7.0,62,0.00,,FEW060,0.00,VWS V14.00,2013-03-19 15:00:00,
2013-03-19 10:05:00,5.5,-4.7,30.16,NW,314,0.0,9.0,62,0.00,,FEW060,0.00,VWS V14.00,2013-03-19 15:05:00,
2013-03-19 10:10:00,5.9,-4.6,30.16,NW,315,4.0,5.0,61,0.00,,FEW060,0.00,VWS V14.00,2013-03-19 15:10:00,
2013-03-19 10:15:00,6.3,-4.3,30.17,NW,309,6.0,10.0,61,0.00,,FEW060,0.00,VWS V14.00,2013-03-19 15:15:00,
2013-03-19 10:20:00,6.6,-4.0,30.17,NW,314,0.0,5.0,61,0.00,,FEW060,0.00,VWS V14.00,2013-03-19 15:20:00,
2013-03-19 10:25:00,6.9,-3.7,30.17,NW,311,3.0,6.0,61,0.00,,FEW060,0.00,VWS V14.00,2013-03-19 15:25:00,
2013-03-19 10:30:00,7.3,-3.7,30.17,NW,311,3.0,7.0,60,0.00,,FEW060,0.00,VWS V14.00,2013-03-19 15:30:00,
2013-03-19 10:35:00,7.8,-2.8,30.18,NW,314,6.0,7.0,61,0.00,,FEW060,0.00,VWS V14.00,2013-03-19 15:35:00,
2013-03-19 10:40:00,8.5,-2.5,30.18,NW,313,0.0,0.0,60,0.00,,FEW060,0.00,VWS V14.00,2013-03-19 15:40:00,
2013-03-19 10:45:00,9.2,-1.9,30.18,NW,314,4.0,8.0,60,0.00,,FEW060,0.00,VWS V14.00,2013-03-19 15:45:00,
2013-03-19 10:50:00,9.5,-2.3,30.18,NW,311,3.0,5.0,58,0.00,,FEW060,0.00,VWS V14.00,2013-03-19 15:50:00,
2013-03-19 10:55:00,9.7,-1.7,30.18,NW,314,6.0,7.0,59,0.00,,FEW060,0.00,VWS V14.00,2013-03-19 15:55:00,
2013-03-19 11:00:00,9.9,-1.9,30.19,NW,310,1.0,7.0,58,0.00,,FEW060,0.00,VWS V14.00,2013-03-19 16:00:00,
2013-03-19 11:05:00,10.1,-1.7,30.19,NW,310,2.0,8.0,58,0.00,,FEW065,0.00,VWS V14.00,2013-03-19 16:05:00,
2013-03-19 11:10:00,10.2,-2.0,30.19,NW,314,1.0,5.0,57,0.00,,FEW065,0.00,VWS V14.00,2013-03-19 16:10:00,
2013-03-19 11:15:00,10.5,-1.3,30.19,NW,310,0.0,8.0,58,0.00,,FEW065,0.00,VWS V14.00,2013-03-19 16:15:00,
2013-03-19 11:20:00,11.0,-0.9,30.19,NW,312,0.0,0.0,58,0.00,,FEW065,0.00,VWS V14.00,2013-03-19 16:20:00,
2013-03-19 11:25:00,11.3,-1.0,30.20,NW,326,8.0,11.0,57,0.00,,FEW065,0.00,VWS V14.00,2013-03-19 16:25:00,
2013-03-19 11:30:00,11.6,-0.7,30.20,North,3,11.0,11.0,57,0.00,,FEW065,0.00,VWS V14.00,2013-03-19 16:30:00,
2013-03-19 11:35:00,12.0,-0.7,30.20,NNW,338,1.0,12.0,56,0.00,,FEW065,0.00,VWS V14.00,2013-03-19 16:35:00,
2013-03-19 11:40:00,12.3,0.0,30.20,NW,314,5.0,11.0,57,0.00,,FEW065,0.00,VWS V14.00,2013-03-19 16:40:00,
2013-03-19 11:45:00,12.5,-0.2,30.20,NNW,327,6.0,16.0,56,0.00,,FEW065,0.00,VWS V14.00,2013-03-19 16:45:00,
2013-03-19 11:50:00,12.3,-0.8,30.20,North,352,8.0,13.0,55,0.00,,FEW065,0.00,VWS V14.00,2013-03-19 16:50:00,
2013-03-19 11:55:00,12.4,-0.7,30.21,NW,310,0.0,13.0,55,0.00,,FEW065,0.00,VWS V14.00,2013-03-19 16:55:00,
2013-03-19 12:00:00,12.6,-0.1,30.20,WNW,297,8.0,10.0,56,0.00,,OVC075,0.00,VWS V14.00,2013-03-19 17:00:00,
2013-03-19 12:05:00,12.8,0.1,30.20,NW,315,6.0,10.0,56,0.00,,OVC075,0.00,VWS V14.00,2013-03-19 17:05:00,
2013-03-19 12:10:00,13.3,0.6,30.20,NNW,331,5.0,10.0,56,0.00,,OVC075,0.00,VWS V14.00,2013-03-19 17:10:00,
2013-03-19 12:15:00,13.4,0.3,30.20,NW,321,3.0,13.0,55,0.00,,OVC075,0.00,VWS V14.00,2013-03-19 17:15:00,
2013-03-19 12:20:00,13.2,0.1,30.20,NNW,331,7.0,13.0,55,0.00,,OVC075,0.00,VWS V14.00,2013-03-19 17:20:00,
2013-03-19 12:26:00,13.1,-0.4,30.21,NW,325,8.0,13.0,54,0.00,,OVC075,0.00,VWS V14.00,2013-03-19 17:26:00,
2013-03-19 12:31:00,12.8,-0.3,30.21,NW,326,0.0,4.0,55,0.00,,OVC075,0.00,VWS V14.00,2013-03-19 17:31:00,
2013-03-19 12:36:00,12.7,-0.8,30.21,NNW,333,0.0,12.0,54,0.00,,OVC075,0.00,VWS V14.00,2013-03-19 17:36:00,
2013-03-19 12:41:00,12.9,-0.2,30.21,NW,321,4.0,8.0,55,0.00,,OVC075,0.00,VWS V14.00,2013-03-19 17:41:00,
2013-03-19 12:46:00,13.6,0.8,30.21,WNW,302,4.0,10.0,56,0.00,,OVC075,0.00,VWS V14.00,2013-03-19 17:46:00,
2013-03-19 12:51:00,14.2,1.4,30.21,NW,315,7.0,10.0,56,0.00,,OVC075,0.00,VWS V14.00,2013-03-19 17:51:00,
2013-03-19 12:56:00,14.4,0.4,30.21,WNW,302,6.0,12.0,53,0.00,,OVC075,0.00,VWS V14.00,2013-03-19 17:56:00,
2013-03-19 13:01:00,14.3,1.1,30.21,WNW,303,6.0,10.0,55,0.00,,OVC075,0.00,VWS V14.00,2013-03-19 18:01:00,
2013-03-19 13:06:00,14.4,0.4,30.22,NW,306,7.0,14.0,53,0.00,,OVC075,0.00,VWS V14.00,2013-03-19 18:06:00,
2013-03-19 13:11:00,14.5,0.9,30.22,NW,305,9.0,9.0,54,0.00,,OVC075,0.00,VWS V14.00,2013-03-19 18:11:00,
2013-03-19 13:16:00,14.5,0.1,30.22,NW,313,6.0,16.0,52,0.00,,OVC060,0.00,VWS V14.00,2013-03-19 18:16:00,
2013-03-19 13:21:00,14.5,0.1,30.22,WNW,303,5.0,11.0,52,0.00,,OVC060,0.00,VWS V14.00,2013-03-19 18:21:00,
2013-03-19 13:26:00,14.2,0.2,30.23,NW,318,7.0,16.0,53,0.00,,OVC060,0.00,VWS V14.00,2013-03-19 18:26:00,
2013-03-19 13:31:00,14.5,0.9,30.23,NW,324,12.0,13.0,54,0.00,,OVC060,0.00,VWS V14.00,2013-03-19 18:31:00,
2013-03-19 13:36:00,14.8,0.8,30.23,WNW,299,4.0,14.0,53,0.00,,OVC060,0.00,VWS V14.00,2013-03-19 18:36:00,
2013-03-19 13:41:00,14.7,0.7,30.23,NW,311,14.0,17.0,53,0.00,,OVC060,0.00,VWS V14.00,2013-03-19 18:41:00,
2013-03-19 13:47:00,14.5,0.1,30.23,NW,317,12.0,17.0,52,0.00,,OVC060,0.00,VWS V14.00,2013-03-19 18:47:00,
2013-03-19 13:52:00,14.4,0.4,30.23,NNW,330,10.0,13.0,53,0.00,,OVC060,0.00,VWS V14.00,2013-03-19 18:52:00,
2013-03-19 13:57:00,14.6,1.4,30.23,NW,322,6.0,13.0,55,0.00,,OVC060,0.00,VWS V14.00,2013-03-19 18:57:00,
2013-03-19 14:02:00,14.7,0.7,30.23,NW,316,12.0,16.0,53,0.00,,OVC060,0.00,VWS V14.00,2013-03-19 19:02:00,
2013-03-19 14:07:00,14.2,-0.2,30.23,NNW,332,9.0,18.0,52,0.00,,CLR,0.00,VWS V14.00,2013-03-19 19:07:00,
2013-03-19 14:12:00,14.3,0.3,30.23,NW,319,4.0,18.0,53,0.00,,CLR,0.00,VWS V14.00,2013-03-19 19:12:00,
2013-03-19 14:17:00,14.5,0.1,30.22,NW,326,8.0,18.0,52,0.00,,CLR,0.00,VWS V14.00,2013-03-19 19:17:00,
2013-03-19 14:22:00,14.7,0.7,30.23,NW,317,11.0,16.0,53,0.00,,CLR,0.00,VWS V14.00,2013-03-19 19:22:00,
2013-03-19 14:27:00,14.9,1.3,30.23,NW,320,2.0,16.0,54,0.00,,CLR,0.00,VWS V14.00,2013-03-19 19:27:00,
2013-03-19 14:32:00,15.1,1.1,30.23,North,0,4.0,14.0,53,0.00,,CLR,0.00,VWS V14.00,2013-03-19 19:32:00,
2013-03-19 14:37:00,15.2,0.8,30.23,NW,318,11.0,17.0,52,0.00,,CLR,0.00,VWS V14.00,2013-03-19 19:37:00,
2013-03-19 14:42:00,15.1,0.2,30.23,NW,311,7.0,15.0,51,0.00,,CLR,0.00,VWS V14.00,2013-03-19 19:42:00,
2013-03-19 14:47:00,15.4,1.3,30.23,NNW,328,4.0,15.0,53,0.00,,CLR,0.00,VWS V14.00,2013-03-19 19:47:00,
2013-03-19 14:52:00,15.5,1.0,30.23,NNW,334,9.0,13.0,52,0.00,,CLR,0.00,VWS V14.00,2013-03-19 19:52:00,
2013-03-19 14:57:00,16.0,1.9,30.23,NW,316,3.0,14.0,53,0.00,,CLR,0.00,VWS V14.00,2013-03-19 19:57:00,
2013-03-19 15:02:00,16.1,1.6,30.23,NW,315,11.0,15.0,52,0.00,,CLR,0.00,VWS V14.00,2013-03-19 20:02:00,
2013-03-19 15:07:00,16.2,2.1,30.23,NW,315,10.0,15.0,53,0.00,,CLR,0.00,VWS V14.00,2013-03-19 20:07:00,
2013-03-19 15:12:00,16.3,1.8,30.23,NW,310,6.0,18.0,52,0.00,,CLR,0.00,VWS V14.00,2013-03-19 20:12:00,
2013-03-19 15:17:00,16.2,2.1,30.23,NNW,334,14.0,18.0,53,0.00,,CLR,0.00,VWS V14.00,2013-03-19 20:17:00,
2013-03-19 15:22:00,16.1,1.2,30.23,NW,322,3.0,18.0,51,0.00,,CLR,0.00,VWS V14.00,2013-03-19 20:22:00,
2013-03-19 15:27:00,16.4,1.9,30.24,NW,319,11.0,18.0,52,0.00,,CLR,0.00,VWS V14.00,2013-03-19 20:27:00,
2013-03-19 15:32:00,16.2,0.8,30.23,NNW,328,8.0,17.0,50,0.00,,CLR,0.00,VWS V14.00,2013-03-19 20:32:00,
2013-03-19 15:37:00,16.1,0.8,30.24,WNW,299,11.0,19.0,50,0.00,,CLR,0.00,VWS V14.00,2013-03-19 20:37:00,
2013-03-19 15:42:00,16.2,1.3,30.24,NW,306,13.0,16.0,51,0.00,,CLR,0.00,VWS V14.00,2013-03-19 20:42:00,
2013-03-19 15:47:00,16.3,1.4,30.24,NW,308,7.0,16.0,51,0.00,,CLR,0.00,VWS V14.00,2013-03-19 20:47:00,
2013-03-19 15:52:00,16.5,1.1,30.24,NW,309,9.0,15.0,50,0.00,,CLR,0.00,VWS V14.00,2013-03-19 20:52:00,
2013-03-19 15:57:00,16.5,0.7,30.24,NW,313,10.0,21.0,49,0.00,,CLR,0.00,VWS V14.00,2013-03-19 20:57:00,
2013-03-19 16:02:00,16.6,0.8,30.24,NW,322,1.0,17.0,49,0.00,,CLR,0.00,VWS V14.00,2013-03-19 21:02:00,
2013-03-19 16:07:00,16.7,1.3,30.25,WNW,298,8.0,17.0,50,0.00,,CLR,0.00,VWS V14.00,2013-03-19 21:07:00,
2013-03-19 16:12:00,17.1,1.7,30.25,West,279,4.0,16.0,50,0.00,,CLR,0.00,VWS V14.00,2013-03-19 21:12:00,
2013-03-19 16:17:00,17.2,1.8,30.25,NW,313,9.0,19.0,50,0.00,,CLR,0.00,VWS V14.00,2013-03-19 21:17:00,
2013-03-19 16:23:00,17.1,2.1,30.25,NW,305,11.0,15.0,51,0.00,,CLR,0.00,VWS V14.00,2013-03-19 21:23:00,
2013-03-19 16:28:00,16.8,1.8,30.25,NNW,327,11.0,17.0,51,0.00,,CLR,0.00,VWS V14.00,2013-03-19 21:28:00,
2013-03-19 16:33:00,17.0,2.8,30.26,NW,304,6.0,13.0,53,0.00,,CLR,0.00,VWS V14.00,2013-03-19 21:33:00,
2013-03-19 16:38:00,17.0,2.8,30.26,WNW,303,6.0,19.0,53,0.00,,CLR,0.00,VWS V14.00,2013-03-19 21:38:00,
2013-03-19 16:43:00,16.9,2.3,30.26,NW,313,12.0,16.0,52,0.00,,CLR,0.00,VWS V14.00,2013-03-19 21:43:00,
2013-03-19 16:48:00,17.1,2.5,30.26,NW,306,9.0,17.0,52,0.00,,CLR,0.00,VWS V14.00,2013-03-19 21:48:00,
2013-03-19 16:53:00,17.0,2.4,30.27,WNW,298,10.0,16.0,52,0.00,,CLR,0.00,VWS V14.00,2013-03-19 21:53:00,
2013-03-19 16:58:00,16.8,2.2,30.27,NNW,329,2.0,16.0,52,0.00,,CLR,0.00,VWS V14.00,2013-03-19 21:58:00,
2013-03-19 17:03:00,16.7,2.1,30.27,NW,305,6.0,19.0,52,0.00,,CLR,0.00,VWS V14.00,2013-03-19 22:03:00,
2013-03-19 17:08:00,16.7,1.7,30.27,NW,321,9.0,19.0,51,0.00,,CLR,0.00,VWS V14.00,2013-03-19 22:08:00,
2013-03-19 17:13:00,16.5,1.5,30.27,NW,316,16.0,17.0,51,0.00,,CLR,0.00,VWS V14.00,2013-03-19 22:13:00,
2013-03-19 17:18:00,16.4,1.9,30.27,NNW,335,8.0,19.0,52,0.00,,CLR,0.00,VWS V14.00,2013-03-19 22:18:00,
2013-03-19 17:23:00,16.4,1.9,30.28,NW,325,7.0,19.0,52,0.00,,CLR,0.00,VWS V14.00,2013-03-19 22:23:00,
2013-03-19 17:28:00,16.3,1.8,30.28,NW,305,11.0,19.0,52,0.00,,CLR,0.00,VWS V14.00,2013-03-19 22:28:00,
2013-03-19 17:33:00,16.1,1.2,30.28,NW,318,5.0,18.0,51,0.00,,CLR,0.00,VWS V14.00,2013-03-19 22:33:00,
2013-03-19 17:38:00,16.0,1.5,30.28,NW,325,0.0,18.0,52,0.00,,CLR,0.00,VWS V14.00,2013-03-19 22:38:00,
2013-03-19 17:43:00,16.0,1.5,30.28,NW,314,7.0,15.0,52,0.00,,CLR,0.00,VWS V14.00,2013-03-19 22:43:00,
2013-03-19 17:48:00,15.8,0.9,30.28,NNW,331,12.0,19.0,51,0.00,,CLR,0.00,VWS V14.00,2013-03-19 22:48:00,
2013-03-19 17:53:00,15.5,0.2,30.28,NW,315,4.0,20.0,50,0.00,,CLR,0.00,VWS V14.00,2013-03-19 22:53:00,
2013-03-19 17:58:00,15.3,0.4,30.28,NNW,331,13.0,20.0,51,0.00,,CLR,0.00,VWS V14.00,2013-03-19 22:58:00,
2013-03-19 18:03:00,15.1,0.2,30.28,NW,318,12.0,19.0,51,0.00,,CLR,0.00,VWS V14.00,2013-03-19 23:03:00,
2013-03-19 18:08:00,14.9,0.5,30.29,NW,310,7.0,19.0,52,0.00,,CLR,0.00,VWS V14.00,2013-03-19 23:08:00,
2013-03-19 18:13:00,14.9,0.9,30.29,NW,314,5.0,18.0,53,0.00,,CLR,0.00,VWS V14.00,2013-03-19 23:13:00,
2013-03-19 18:18:00,14.8,1.2,30.29,NW,304,7.0,18.0,54,0.00,,CLR,0.00,VWS V14.00,2013-03-19 23:18:00,
2013-03-19 18:23:00,14.6,1.0,30.29,NNW,328,1.0,18.0,54,0.00,,CLR,0.00,VWS V14.00,2013-03-19 23:23:00,
2013-03-19 18:29:00,14.4,1.2,30.29,NW,313,7.0,18.0,55,0.00,,CLR,0.00,VWS V14.00,2013-03-19 23:29:00,
2013-03-19 18:34:00,14.4,1.6,30.29,WNW,297,8.0,20.0,56,0.00,,CLR,0.00,VWS V14.00,2013-03-19 23:34:00,
2013-03-19 18:39:00,14.3,1.9,30.29,NW,322,8.0,20.0,57,0.00,,CLR,0.00,VWS V14.00,2013-03-19 23:39:00,
2013-03-19 18:44:00,14.1,1.3,30.30,NW,310,11.0,16.0,56,0.00,,CLR,0.00,VWS V14.00,2013-03-19 23:44:00,
2013-03-19 18:49:00,13.8,1.4,30.29,WNW,290,7.0,16.0,57,0.00,,CLR,0.00,VWS V14.00,2013-03-19 23:49:00,
2013-03-19 18:54:00,13.5,1.1,30.30,WNW,286,10.0,16.0,57,0.00,,CLR,0.00,VWS V14.00,2013-03-19 23:54:00,
2013-03-19 18:59:00,13.4,1.0,30.29,NW,306,17.0,17.0,57,0.00,,CLR,0.00,VWS V14.00,2013-03-19 23:59:00,
2013-03-19 19:04:00,12.9,0.9,30.30,NW,308,3.0,15.0,58,0.00,,CLR,0.00,VWS V14.00,2013-03-20 00:04:00,
2013-03-19 19:09:00,12.5,0.9,30.30,NW,312,6.0,15.0,59,0.00,,CLR,0.00,VWS V14.00,2013-03-20 00:09:00,
2013-03-19 19:14:00,12.2,1.0,30.30,WNW,300,1.0,11.0,60,0.00,,CLR,0.00,VWS V14.00,2013-03-20 00:14:00,
2013-03-19 19:19:00,11.8,0.6,30.30,NW,307,8.0,12.0,60,0.00,,CLR,0.00,VWS V14.00,2013-03-20 00:19:00,
2013-03-19 19:24:00,11.6,0.8,30.30,WNW,300,5.0,13.0,61,0.00,,CLR,0.00,VWS V14.00,2013-03-20 00:24:00,
2013-03-19 19:29:00,11.3,0.5,30.30,NW,314,10.0,13.0,61,0.00,,CLR,0.00,VWS V14.00,2013-03-20 00:29:00,
2013-03-19 19:34:00,11.0,0.2,30.30,NW,311,8.0,12.0,61,0.00,,CLR,0.00,VWS V14.00,2013-03-20 00:34:00,
2013-03-19 19:39:00,10.7,0.3,30.30,NW,304,5.0,15.0,62,0.00,,CLR,0.00,VWS V14.00,2013-03-20 00:39:00,
2013-03-19 19:44:00,10.6,0.2,30.30,NW,312,7.0,16.0,62,0.00,,CLR,0.00,VWS V14.00,2013-03-20 00:44:00,
2013-03-19 19:49:00,10.4,0.0,30.30,WNW,299,3.0,16.0,62,0.00,,CLR,0.00,VWS V14.00,2013-03-20 00:49:00,
2013-03-19 19:54:00,10.2,-0.2,30.31,WNW,294,8.0,12.0,62,0.00,,CLR,0.00,VWS V14.00,2013-03-20 00:54:00,
2013-03-19 19:59:00,10.0,-0.1,30.31,NW,309,6.0,12.0,63,0.00,,CLR,0.00,VWS V14.00,2013-03-20 00:59:00,
2013-03-19 20:04:00,9.7,-0.3,30.31,NW,304,6.0,9.0,63,0.00,,CLR,0.00,VWS V14.00,2013-03-20 01:04:00,
2013-03-19 20:09:00,9.6,-0.4,30.31,NW,317,5.0,15.0,63,0.00,,CLR,0.00,VWS V14.00,2013-03-20 01:09:00,
2013-03-19 20:14:00,9.3,-0.4,30.31,WNW,301,11.0,12.0,64,0.00,,CLR,0.00,VWS V14.00,2013-03-20 01:14:00,
2013-03-19 20:19:00,9.4,0.0,30.31,WNW,302,5.0,13.0,65,0.00,,CLR,0.00,VWS V14.00,2013-03-20 01:19:00,
2013-03-19 20:24:00,9.3,-0.1,30.31,WNW,293,5.0,11.0,65,0.00,,CLR,0.00,VWS V14.00,2013-03-20 01:24:00,
2013-03-19 20:29:00,9.2,0.2,30.31,WNW,293,4.0,11.0,66,0.00,,CLR,0.00,VWS V14.00,2013-03-20 01:29:00,
2013-03-19 20:34:00,9.2,0.2,30.31,WNW,292,10.0,12.0,66,0.00,,CLR,0.00,VWS V14.00,2013-03-20 01:34:00,
2013-03-19 20:39:00,9.1,0.1,30.31,WNW,298,8.0,13.0,66,0.00,,CLR,0.00,VWS V14.00,2013-03-20 01:39:00,
2013-03-19 20:44:00,9.0,0.0,30.31,WNW,286,8.0,15.0,66,0.00,,CLR,0.00,VWS V14.00,2013-03-20 01:44:00,
2013-03-19 20:49:00,8.8,0.1,30.31,WNW,290,6.0,15.0,67,0.00,,CLR,0.00,VWS V14.00,2013-03-20 01:49:00,
2013-03-19 20:54:00,8.7,0.0,30.31,WNW,294,6.0,12.0,67,0.00,,CLR,0.00,VWS V14.00,2013-03-20 01:54:00,
2013-03-19 20:59:00,8.4,-0.3,30.31,WNW,284,7.0,13.0,67,0.00,,CLR,0.00,VWS V14.00,2013-03-20 01:59:00,
2013-03-19 21:04:00,8.4,-0.3,30.31,WNW,303,4.0,12.0,67,0.00,,CLR,0.00,VWS V14.00,2013-03-20 02:04:00,
2013-03-19 21:09:00,8.3,-0.4,30.31,WNW,291,4.0,12.0,67,0.00,,CLR,0.00,VWS V14.00,2013-03-20 02:09:00,
2013-03-19 21:14:00,8.1,-0.6,30.32,WNW,291,4.0,12.0,67,0.00,,CLR,0.00,VWS V14.00,2013-03-20 02:14:00,
2013-03-19 21:19:00,7.9,-0.8,30.31,WNW,289,3.0,12.0,67,0.00,,CLR,0.00,VWS V14.00,2013-03-20 02:19:00,
2013-03-19 21:24:00,7.8,-0.9,30.32,WNW,291,4.0,13.0,67,0.00,,CLR,0.00,VWS V14.00,2013-03-20 02:24:00,
2013-03-19 21:29:00,7.6,-1.0,30.31,WNW,295,8.0,13.0,67,0.00,,CLR,0.00,VWS V14.00,2013-03-20 02:29:00,
2013-03-19 21:34:00,7.4,-1.6,30.32,WNW,295,4.0,11.0,66,0.00,,CLR,0.00,VWS V14.00,2013-03-20 02:34:00,
2013-03-19 21:39:00,7.4,-1.6,30.32,WNW,289,7.0,16.0,66,0.00,,CLR,0.00,VWS V14.00,2013-03-20 02:39:00,
2013-03-19 21:45:00,7.3,-1.7,30.32,NW,310,8.0,9.0,66,0.00,,CLR,0.00,VWS V14.00,2013-03-20 02:45:00,
2013-03-19 21:50:00,7.2,-1.8,30.32,WNW,291,10.0,10.0,66,0.00,,CLR,0.00,VWS V14.00,2013-03-20 02:50:00,
2013-03-19 21:55:00,7.1,-2.2,30.32,WNW,296,7.0,12.0,65,0.00,,CLR,0.00,VWS V14.00,2013-03-20 02:55:00,
2013-03-19 22:00:00,7.0,-2.3,30.32,NW,310,3.0,12.0,65,0.00,,CLR,0.00,VWS V14.00,2013-03-20 03:00:00,
2013-03-19 22:05:00,6.7,-2.5,30.32,NW,314,8.0,14.0,65,0.00,,CLR,0.00,VWS V14.00,2013-03-20 03:05:00,
2013-03-19 22:10:00,6.6,-2.7,30.32,NW,308,14.0,14.0,65,0.00,,CLR,0.00,VWS V14.00,2013-03-20 03:10:00,
2013-03-19 22:15:00,6.7,-2.5,30.32,WNW,297,3.0,15.0,65,0.00,,CLR,0.00,VWS V14.00,2013-03-20 03:15:00,
2013-03-19 22:20:00,6.6,-2.7,30.32,NW,304,5.0,9.0,65,0.00,,CLR,0.00,VWS V14.00,2013-03-20 03:20:00,
2013-03-19 22:25:00,6.6,-2.7,30.32,WNW,302,6.0,14.0,65,0.00,,CLR,0.00,VWS V14.00,2013-03-20 03:25:00,
2013-03-19 22:30:00,6.6,-3.0,30.32,WNW,293,3.0,4.0,64,0.00,,CLR,0.00,VWS V14.00,2013-03-20 03:30:00,
2013-03-19 22:35:00,6.5,-3.1,30.32,WNW,298,7.0,13.0,64,0.00,,CLR,0.00,VWS V14.00,2013-03-20 03:35:00,
2013-03-19 22:40:00,6.4,-3.2,30.32,WNW,302,7.0,8.0,64,0.00,,CLR,0.00,VWS V14.00,2013-03-20 03:40:00,
2013-03-19 22:45:00,6.1,-3.1,30.32,WNW,287,11.0,15.0,65,0.00,,CLR,0.00,VWS V14.00,2013-03-20 03:45:00,
2013-03-19 22:50:00,5.9,-3.3,30.32,WNW,298,5.0,12.0,65,0.00,,CLR,0.00,VWS V14.00,2013-03-20 03:50:00,
2013-03-19 22:55:00,5.8,-3.4,30.32,WNW,288,5.0,14.0,65,0.00,,CLR,0.00,VWS V14.00,2013-03-20 03:55:00,
2013-03-19 23:00:00,5.8,-3.1,30.33,WNW,290,5.0,14.0,66,0.00,,CLR,0.00,VWS V14.00,2013-03-20 04:00:00,
2013-03-19 23:05:00,5.6,-3.3,30.33,NW,310,8.0,13.0,66,0.00,,CLR,0.00,VWS V14.00,2013-03-20 04:05:00,
2013-03-19 23:10:00,5.5,-3.4,30.33,NW,307,4.0,10.0,66,0.00,,CLR,0.00,VWS V14.00,2013-03-20 04:10:00,
2013-03-19 23:15:00,5.4,-3.2,30.33,WNW,296,8.0,14.0,67,0.00,,CLR,0.00,VWS V14.00,2013-03-20 04:15:00,
2013-03-19 23:20:00,5.4,-3.2,30.33,WNW,299,7.0,8.0,67,0.00,,CLR,0.00,VWS V14.00,2013-03-20 04:20:00,
2013-03-19 23:25:00,5.3,-3.0,30.33,WNW,286,2.0,12.0,68,0.00,,CLR,0.00,VWS V14.00,2013-03-20 04:25:00,
2013-03-19 23:30:00,5.2,-3.0,30.33,WNW,301,6.0,10.0,68,0.00,,CLR,0.00,VWS V14.00,2013-03-20 04:30:00,
2013-03-19 23:35:00,5.2,-3.0,30.33,WNW,298,5.0,11.0,68,0.00,,CLR,0.00,VWS V14.00,2013-03-20 04:35:00,
2013-03-19 23:40:00,5.1,-3.1,30.33,NW,306,9.0,11.0,68,0.00,,CLR,0.00,VWS V14.00,2013-03-20 04:40:00,
2013-03-19 23:45:00,5.0,-2.9,30.33,WNW,300,5.0,13.0,69,0.00,,CLR,0.00,VWS V14.00,2013-03-20 04:45:00,
2013-03-19 23:50:00,5.0,-2.9,30.33,WNW,299,4.0,12.0,69,0.00,,CLR,0.00,VWS V14.00,2013-03-20 04:50:00,
2013-03-19 23:56:00,5.1,-2.8,30.33,NW,307,7.0,13.0,69,0.00,,CLR,0.00,VWS V14.00,2013-03-20 04:56:00,